DW0805 Ramloese DK current weather conditions

sailwx.info

Wind from 069

Air temperature 6.7° C
Dewpoint 6.1° C

Last reported at 2017-Sep-21 23:35 UTC.
Time now 2017-Sep-22 01:00 UTC

Location: N 56°01' E 012°05'.
View on Google Maps.

See reports from other nearby stations

  
Tides and Currents Weather Stations Pressure Air Temp Water Temp Dewpoint Dewpoint Depression Visibility Wind Speed Wind Dir Waves Ship Positions
date/time (UTC)wind fromknots sea level pressurealtimeterstation pressurevisibilityair tempwater tempwave heightnotes
2017-Sep-21 23:35 069 6.7
2017-Sep-21 23:25 068 6.7
2017-Sep-21 23:15 068 6.7
2017-Sep-21 23:05 068 7.2
2017-Sep-21 22:55 068 7.2
2017-Sep-21 22:25 068 7.8
2017-Sep-21 22:05 069 8.9
2017-Sep-21 21:55 068 8.9
2017-Sep-21 21:45 068 0 gusting 2 8.9
2017-Sep-21 21:25 068 1 gusting 2 9.4
2017-Sep-21 21:15 069 1 gusting 5 9.4
2017-Sep-21 21:05 069 0 gusting 2 9.4
2017-Sep-21 20:55 069 1 gusting 2 8.9
2017-Sep-21 20:45 070 1 gusting 2 8.9
2017-Sep-21 20:25 070 1 gusting 2 9.4
2017-Sep-21 20:15 070 0 gusting 2 9.4
2017-Sep-21 19:55 070 0 gusting 2 10.0
2017-Sep-21 19:35 072 2 gusting 5 10.6
2017-Sep-21 19:25 073 0 gusting 2 10.6
2017-Sep-21 19:15 073 0 gusting 2 10.6
2017-Sep-21 19:05 073 0 gusting 5 11.1
2017-Sep-21 18:55 073 2 gusting 6 11.1
2017-Sep-21 18:45 061 1 gusting 2 11.1
2017-Sep-21 18:25 061 0 gusting 4 11.1
2017-Sep-21 18:05 063 0 gusting 4 11.7
2017-Sep-21 17:55 064 0 gusting 2 11.7
2017-Sep-21 17:45 064 11.7
2017-Sep-21 17:35 064 12.2
2017-Sep-21 17:25 064 12.8
2017-Sep-21 17:15 064 12.8
2017-Sep-21 17:05 064 12.8
2017-Sep-21 16:55 065 0 gusting 4 13.3
2017-Sep-21 16:45 065 2 gusting 6 13.3
2017-Sep-21 16:25 053 0 gusting 2 14.4
2017-Sep-21 16:15 054 0 gusting 2 14.4
2017-Sep-21 16:05 053 0 gusting 2 14.4
2017-Sep-21 15:55 053 0 gusting 2 15.0
2017-Sep-21 15:45 054 1 gusting 5 15.0
2017-Sep-21 15:35 044 3 gusting 6 15.0
2017-Sep-21 15:25 042 0 gusting 6 15.6
2017-Sep-21 15:15 042 2 gusting 5 15.6
2017-Sep-21 15:05 042 1 gusting 7 15.6
2017-Sep-21 14:55 068 2 gusting 6 16.1
2017-Sep-21 14:45 041 3 gusting 7 16.1
2017-Sep-21 14:35 052 1 gusting 6 16.1
2017-Sep-21 14:25 036 0 gusting 4 16.7
2017-Sep-21 14:15 063 1 gusting 6 16.7
2017-Sep-21 14:05 043 1 gusting 6 16.7
2017-Sep-21 13:55 038 1 gusting 4 16.1
2017-Sep-21 13:45 033 1 gusting 4 16.7
2017-Sep-21 13:35 016 0 gusting 4 17.2
2017-Sep-21 13:15 16.1
2017-Sep-21 13:05 354 2 gusting 4 16.1
2017-Sep-21 12:55 16.1
2017-Sep-21 12:45 352 0 gusting 4 16.7
2017-Sep-21 12:35 001 2 gusting 5 16.1
2017-Sep-21 10:45 146 0 gusting 2 17.2
2017-Sep-21 10:25 145 15.6
2017-Sep-21 10:15 146 15.0
2017-Sep-21 10:05 146 13.9
2017-Sep-21 09:45 145 13.9
2017-Sep-21 09:35 146 13.9
2017-Sep-21 09:25 146 13.3
2017-Sep-21 09:15 146 13.3
2017-Sep-21 09:05 145 13.3
2017-Sep-21 08:55 145 12.8
2017-Sep-21 08:45 145 12.8
2017-Sep-21 08:25 146 12.2
2017-Sep-21 07:55 147 12.8
2017-Sep-21 07:45 146 12.8
2017-Sep-21 07:35 145 12.8
2017-Sep-21 07:25 144 12.2
2017-Sep-21 07:05 145 12.2
2017-Sep-21 06:55 335 12.2
2017-Sep-21 06:35 146 11.7
2017-Sep-21 06:15 162 12.2
2017-Sep-21 06:05 164 11.7
2017-Sep-21 05:55 162 11.7
2017-Sep-21 05:45 250 11.7
2017-Sep-21 05:25 163 11.7
2017-Sep-21 05:15 163 11.7
2017-Sep-21 04:55 163 11.7
2017-Sep-21 04:45 163 11.7
2017-Sep-21 04:15 163 11.7
2017-Sep-21 04:05 163 11.7
2017-Sep-21 03:45 163 11.7
2017-Sep-21 03:35 163 11.7
2017-Sep-21 03:25 163 11.7
2017-Sep-21 03:15 163 11.7
2017-Sep-21 03:05 163 11.7
2017-Sep-21 02:55 163 11.7
2017-Sep-21 02:35 163 1 gusting 2 11.7
2017-Sep-21 02:25 182 0 gusting 2 12.2
2017-Sep-21 02:15 183 12.2
2017-Sep-21 01:55 183 0 gusting 4 11.7
2017-Sep-21 01:45 184 1 gusting 5 11.7
2017-Sep-21 01:35 184 11.7
2017-Sep-21 01:15 186 11.7
2017-Sep-21 01:05 186 0 gusting 4 11.7
2017-Sep-21 00:45 185 0 gusting 6 11.7
2017-Sep-21 00:35 196 1 gusting 6 11.7
2017-Sep-21 00:25 202 1 gusting 2 11.7
2017-Sep-21 00:05 340 11.1
2017-Sep-20 23:55 340 11.1
2017-Sep-20 23:45 340 11.1
2017-Sep-20 23:35 340 11.1
2017-Sep-20 23:15 340 11.1
2017-Sep-20 23:05 340 11.1
2017-Sep-20 22:55 340 11.1
2017-Sep-20 22:35 340 11.1
2017-Sep-20 22:05 340 10.6
2017-Sep-20 21:55 340 10.6
2017-Sep-20 21:45 340 0 gusting 1 10.6
2017-Sep-20 21:35 335 0 gusting 1 10.6
2017-Sep-20 21:05 335 10.0
2017-Sep-20 20:55 335 10.0
2017-Sep-20 20:45 335 10.0
2017-Sep-20 20:35 335 10.0
2017-Sep-20 20:25 335 10.0
2017-Sep-20 20:15 335 10.0
2017-Sep-20 20:05 335 9.4
2017-Sep-20 19:45 335 9.4
2017-Sep-20 19:35 335 9.4
2017-Sep-20 19:25 335 9.4
2017-Sep-20 18:55 335 9.4
2017-Sep-20 18:45 335 10.0
2017-Sep-20 18:25 335 10.0
2017-Sep-20 18:15 335 10.6
2017-Sep-20 18:05 335 10.6
2017-Sep-20 17:55 335 11.1
2017-Sep-20 17:25 335 12.2
2017-Sep-20 17:15 335 12.8
2017-Sep-20 17:05 335 13.9
2017-Sep-20 16:55 335 15.0
2017-Sep-20 16:45 335 15.6
2017-Sep-20 16:35 335 1 gusting 4 15.6
2017-Sep-20 16:25 357 0 gusting 2 15.0
2017-Sep-20 16:15 356 15.0
2017-Sep-20 16:05 355 15.0
2017-Sep-20 15:55 356 1 gusting 6 15.6
2017-Sep-20 15:45 358 0 gusting 2 15.0
2017-Sep-20 15:15 314 1 gusting 5 15.6
2017-Sep-20 15:05 314 1 gusting 5 15.0
2017-Sep-20 14:55 346 2 gusting 6 16.1
2017-Sep-20 14:45 327 2 gusting 7 16.7
2017-Sep-20 14:35 319 2 gusting 6 16.7
2017-Sep-20 14:25 317 4 gusting 10 16.7
2017-Sep-20 14:15 315 2 gusting 8 16.7
2017-Sep-20 14:05 320 2 gusting 6 16.7
2017-Sep-20 13:45 292 5 gusting 8 16.7
2017-Sep-20 13:35 315 4 gusting 8 16.7
2017-Sep-20 13:25 335 5 gusting 7 16.7
2017-Sep-20 13:15 312 2 gusting 10 16.1
2017-Sep-20 13:05 297 4 gusting 8 16.7
2017-Sep-20 12:55 306 4 gusting 8 17.2
2017-Sep-20 12:45 317 3 gusting 8 17.2
2017-Sep-20 12:35 343 3 gusting 7 16.7
2017-Sep-20 12:25 321 4 gusting 10 16.7
2017-Sep-20 12:15 327 5 gusting 10 16.1
2017-Sep-20 12:05 348 4 gusting 10 16.1
2017-Sep-20 11:55 302 2 gusting 10 16.7
2017-Sep-20 11:35 307 3 gusting 6 16.1
2017-Sep-20 11:15 340 1 gusting 8 16.7
2017-Sep-20 10:55 327 1 gusting 7 15.0
2017-Sep-20 10:45 320 4 gusting 10 15.6
2017-Sep-20 10:35 309 3 gusting 7 16.1
2017-Sep-20 10:25 331 4 gusting 7 16.7
2017-Sep-20 10:15 310 3 gusting 8 15.6
2017-Sep-20 09:45 357 1 gusting 7 16.1
2017-Sep-20 09:35 311 1 gusting 7 15.6
2017-Sep-20 09:25 357 2 gusting 7 16.7
2017-Sep-20 09:15 305 2 gusting 8 15.6
2017-Sep-20 09:05 324 1 gusting 5 15.6
2017-Sep-20 08:55 298 2 gusting 8 15.6
2017-Sep-20 08:45 323 5 gusting 7 16.1
2017-Sep-20 08:25 327 1 gusting 4 16.7
2017-Sep-20 08:15 315 0 gusting 5 16.1
2017-Sep-20 08:05 335 3 gusting 7 16.1
2017-Sep-20 07:35 325 0 gusting 4 15.0
2017-Sep-20 06:55 335 0 gusting 4 13.3
2017-Sep-20 06:45 275 13.3
2017-Sep-20 06:35 257 13.9
2017-Sep-20 06:15 242 12.8
2017-Sep-20 06:05 242 12.2
2017-Sep-20 05:55 242 12.2
2017-Sep-20 05:45 288 12.2
2017-Sep-20 05:35 242 12.2
2017-Sep-20 05:25 254 12.2
2017-Sep-20 04:55 255 1 gusting 5 12.2
2017-Sep-20 04:45 255 1 gusting 5 11.7
2017-Sep-20 04:35 254 2 gusting 5 11.7
2017-Sep-20 04:15 254 0 gusting 5 11.7
2017-Sep-20 04:05 254 0 gusting 2 11.1
2017-Sep-20 03:55 254 11.1
2017-Sep-20 03:45 254 0 gusting 5 11.1
2017-Sep-20 03:35 254 11.1
2017-Sep-20 03:15 254 11.7
2017-Sep-20 03:05 254 11.7
2017-Sep-20 02:55 254 11.7
2017-Sep-20 02:35 254 0 gusting 5 11.7
2017-Sep-20 02:25 253 1 gusting 5 12.2
2017-Sep-20 02:15 254 1 gusting 5 12.2
2017-Sep-20 02:05 254 1 gusting 5 12.2
2017-Sep-20 01:55 254 0 gusting 2 12.2
2017-Sep-20 01:25 256 0 gusting 5 12.2
2017-Sep-20 01:15 258 1 gusting 6 12.2